Regional Weather Roundup
Issued by NWS

Home | Current Version | Previous Version | Graphics & Text | Print | Product List | Glossary On
Versions: 1 2 3 4 5 6 7 8 9 10 11 12 13 14 15 16 17 18 19 20 21 22 23 24 25 26 27 28 29 30 31 32 33 34 35 36 37 38 39 40 41 42 43 44 45 46 47 48 49 50
799
ASUS43 KFSD 212310
RWRSD

WEATHER ROUNDUP FOR SOUTH DAKOTA
NATIONAL WEATHER SERVICE SIOUX FALLS SD
600 PM CDT THU SEP 21 2017

NOTE: "FAIR" INDICATES FEW OR NO CLOUDS BELOW 12,000 FEET WITH NO
SIGNIFICANT WEATHER AND/OR OBSTRUCTIONS TO VISIBILITY.


SDZ001>005-009-010-012>017-220000-
NORTHWEST AND NORTH CENTRAL SOUTH DAKOTA

CITY           SKY/WX    TMP DP  RH WIND       PRES   REMARKS
BUFFALO          N/A     71  41  33 NE17      29.69R
FAITH            N/A     79  43  27 N21       29.67R
MOBRIDGE       SUNNY     87  57  35 CALM      29.60R
$$

SDZ012>016-024>037-041>051-057-063-072>074-220000-
SOUTHWEST AND SOUTH CENTRAL SOUTH DAKOTA

CITY           SKY/WX    TMP DP  RH WIND       PRES   REMARKS
RAPID CTY ARPT SUNNY     75  39  27 N22       29.69S
PIERRE         SUNNY     88  53  30 S13       29.59R
CUSTER         SUNNY     70  37  29 E20       29.78R
ELLSWORTH AFB  CLOUDY    76  38  26 N15       29.69S
PHILIP         SUNNY     90  41  18 NW10      29.59S
PINE RIDGE     SUNNY     89  38  16 SE9       29.63S
SPEARFISH      FAIR      68  39  34 N6        29.77R
WINNER         FAIR      87  59  38 S14       29.62S
$$

SDZ004>011-016>023-039-040-220000-
NORTHEAST SOUTH DAKOTA

CITY           SKY/WX    TMP DP  RH WIND       PRES   REMARKS
ABERDEEN       SUNNY     84  64  50 S16G22    29.63R
WATERTOWN      SUNNY     82  67  60 S12       29.68R
BROOKINGS      MOSUNNY   83  69  62 S10       29.69R
SISSETON         N/A     82  69  64 SE9       29.65F
$$

SDZ017-020-022-023-036>040-048>070-220000-
SOUTHEAST SOUTH DAKOTA

CITY           SKY/WX    TMP DP  RH WIND       PRES   REMARKS
SIOUX FALLS    MOSUNNY   86  71  60 S17       29.69R
HURON          SUNNY     85  68  56 SE12      29.64R
CHAMBERLAIN    SUNNY     89  58  34 S14G20    29.62R
MITCHELL       SUNNY     89  66  46 S13       29.63S
YANKTON        SUNNY     88  71  57 SE15G24   29.66R
$$

ABBREVIATIONS USED IN REMARKS
   TC - TEMPERATURE IN CELSIUS
  WCI - WIND CHILL INDEX
   HX - HEAT INDEX
  VSB - VISIBILITY





USA.gov is the U.S. government's official web portal to all federal, state and local government web resources and services.